Las Vegas, NV

9:26 PM PDT on August 28, 2016 (GMT -0700)
Nellis AFB

Weather History for KLSV - February, 2014

Change the Weather History Date:

Sunday, February 16, 2014

  Actual Average Record
Temperature  
Mean Temperature 65 °F -  
Max Temperature 81 °F 61 °F 81 °F (2014)
Min Temperature 49 °F 40 °F 33 °F (2008)
Growing Degree Days 15 (Base 50)    
Moisture  
Dew Point 21 °F    
Average Humidity 21    
Maximum Humidity 41    
Minimum Humidity 9    
Precipitation  
Precipitation 0.00 in - - ()
Sea Level Pressure  
Sea Level Pressure 29.93 in    
Wind  
Wind Speed 7 mph (NNW)    
Max Wind Speed 17 mph    
Max Gust Speed 24 mph    
Visibility 10 miles    
Events      
Averages and records for this station are not official NWS values.
T = Trace of Precipitation, MM = Missing Value Source: NWS Daily Summary

Daily Weather History Graph

Daily Weather History Graph

Search for Another Location

Airport or City:

Trip Planner

Search our weather history database for the weather conditions in past years. The results will help you decide how hot, cold, wet, or windy it might be!

Date:

Astronomy

Feb. 16, 2014 Rise Set
Actual Time 6:26 AM PST 5:22 PM PST
Civil Twilight 6:00 AM PST 5:48 PM PST
Nautical Twilight 5:30 AM PST 6:18 PM PST
Astronomical Twilight 5:00 AM PST 6:48 PM PST
Moon 7:18 PM PST (2/16) 7:02 AM PST (2/16)
Length of Visible Light 11h 48m
Length of Day
10h 55m
Full, 97% of the Moon is Illuminated
Feb 16
Full
Feb 22
Last Quarter
Mar 1
New
Mar 8
First Quarter
Mar 16
Full

Hourly Weather History & Observations

Time (PST) Temp. Dew Point Humidity Pressure Visibility Wind Dir Wind Speed Gust Speed Precip Events Conditions
12:58 AM 52.0 °F 27.0 °F 38% 29.87 in 10.0 mi ESE 4.6 mph - N/A   Clear
1:58 AM 52.2 °F 27.0 °F 38% 29.86 in 10.0 mi Variable 4.6 mph - N/A   Clear
2:58 AM 54.3 °F 26.2 °F 34% 29.84 in 10.0 mi ENE 13.8 mph - N/A   Clear
3:58 AM 51.8 °F 25.9 °F 37% 29.86 in 10.0 mi ESE 4.6 mph - N/A   Clear
4:58 AM 52.5 °F 26.4 °F 36% 29.88 in 10.0 mi NE 9.2 mph - N/A   Partly Cloudy
5:58 AM 49.8 °F 26.1 °F 40% 29.88 in 10.0 mi North 4.6 mph - N/A   Clear
6:58 AM 49.5 °F 25.9 °F 40% 29.91 in 10.0 mi WNW 2.3 mph - N/A   Clear
7:58 AM 49.5 °F 26.8 °F 41% 29.91 in 10.0 mi NE 3.5 mph - N/A   Clear
8:58 AM 61.0 °F 28.2 °F 29% 29.91 in 10.0 mi NW 2.3 mph - N/A   Clear
9:58 AM 69.3 °F 25.7 °F 20% 29.93 in 10.0 mi North 3.5 mph - N/A   Clear
10:58 AM 75.2 °F 27.1 °F 17% 29.94 in 10.0 mi West 2.3 mph - N/A   Clear
11:58 AM 76.1 °F 27.9 °F 17% 29.92 in 10.0 mi SW 9.2 mph - N/A   Clear
12:58 PM 78.4 °F 26.2 °F 15% 29.89 in 10.0 mi SW 8.1 mph - N/A   Clear
1:58 PM 80.6 °F 23.9 °F 12% 29.89 in 10.0 mi WNW 9.2 mph - N/A   Clear
2:11 PM 80.6 °F 17.6 °F 10% 29.93 in 10.0 mi NW 16.1 mph 24.2 mph N/A   Clear
2:37 PM 80.6 °F 17.6 °F 10% 29.94 in 10.0 mi West 16.1 mph - N/A   Clear
2:58 PM 81.1 °F 17.6 °F 9% 29.90 in 10.0 mi West 11.5 mph 21.9 mph N/A   Clear
3:58 PM 80.2 °F 18.5 °F 10% 29.90 in 10.0 mi WNW 17.3 mph - N/A   Clear
4:17 PM 80.6 °F 17.6 °F 10% 29.95 in 10.0 mi NW 16.1 mph - N/A   Clear
4:19 PM 80.6 °F 17.6 °F 10% 29.96 in 10.0 mi North 16.1 mph - N/A   Clear
4:58 PM 77.5 °F 20.3 °F 12% 29.94 in 10.0 mi NNW 6.9 mph - N/A   Clear
5:58 PM 75.7 °F 18.1 °F 11% 29.96 in 10.0 mi ENE 2.3 mph - N/A   Clear
6:58 PM 66.7 °F 21.4 °F 18% 29.99 in 10.0 mi North 6.9 mph - N/A   Clear
7:58 PM 65.7 °F 7.9 °F 10% 30.02 in 10.0 mi NW 8.1 mph - N/A   Clear
8:58 PM 62.6 °F 5.5 °F 10% 30.02 in 10.0 mi WNW 3.5 mph - N/A   Clear
9:58 PM 55.2 °F 11.3 °F 17% 30.05 in 10.0 mi North 5.8 mph - N/A   Clear
10:58 PM 57.4 °F 11.5 °F 16% 30.04 in 10.0 mi East 10.4 mph - N/A   Clear
11:58 PM 57.7 °F 8.1 °F 14% 30.06 in 10.0 mi North 4.6 mph - N/A   Clear